Regional Weather Roundup
Issued by NWS Upton, NY

Current Version | Previous Version | Graphics & Text | Print | Product List | Glossary Off
Versions: 1 2 3 4 5 6 7 8 9 10 11 12 13 14 15 16 17 18 19 20 21 22 23 24 25 26 27 28

000
ASUS41 KOKX 300305
RWROKX
REGIONAL WEATHER ROUNDUP
NATIONAL WEATHER SERVICE NEW YORK NY
1100 PM EDT WED OCT 29 2014

NOTE: "FAIR" INDICATES FEW OR NO CLOUDS BELOW 12,000 FEET WITH NO
SIGNIFICANT WEATHER AND/OR OBSTRUCTIONS TO VISIBILITY.

NYZ071-072-176-178-NJZ106-104-300400-
NEW YORK CITY METRO AREA


CITY           SKY/WX    TMP DP  RH WIND       PRES   REMARKS
CENTRAL PARK   CLOUDY    53  46  77 W7        29.97S
LAGUARDIA APRT CLOUDY    54  47  77 NW12      29.94S
KENNEDY INTL   CLOUDY    55  47  74 W10       29.96R
NEWARK/LIBERTY CLOUDY    51  48  89 W7        29.95S
BRNX BOT. GARD   N/A     52  46  82 NW1       29.96S
TETERBORO      MOCLDY    52  46  80 W5        29.94R
$$

NYZ177-179-078>081-300400-
LONG ISLAND NEW YORK

CITY           SKY/WX    TMP DP  RH WIND       PRES   REMARKS
FARMINGDALE    CLOUDY    53  48  83 NW6       29.94R
ISLIP          CLOUDY    53  49  86 NW7       29.92R
SHIRLEY        LGT RAIN  54  50  86 NW5       29.94R
WESTHAMPTON    CLOUDY    56  49  77 NW10      29.94R
MONTAUK POINT    N/A     57  50  77 NW10      29.93R
$$

NYZ052-065-067-300400-
HUDSON VALLEY

CITY           SKY/WX    TMP DP  RH WIND       PRES   REMARKS
WHITE PLAINS   MOCLDY    50  48  93 NW6       29.94R
NEWBURGH       CLEAR     46  46 100 W6        29.96R
MONTGOMERY     PTCLDY    45  43  93 CALM      29.94R
POUGHKEEPSIE   FOG       44  42  93 CALM      29.94S VSB 1/4
ALBANY         CLOUDY    46  42  86 CALM      29.93S
$$

NJZ001-105-106-008-010-013-015-019>022-104-300400-
NEW JERSEY

CITY           SKY/WX    TMP DP  RH WIND       PRES   REMARKS
NEWARK/LIBERTY CLOUDY    51  48  89 W7        29.95S
TETERBORO      MOCLDY    52  46  80 W5        29.94R
CALDWELL       MOCLDY    48  46  93 S3        29.96S
MORRISTOWN     PTCLDY    50  46  87 CALM      29.96S
SOMERVILLE     FOG       43  41  93 CALM      29.95S VSB 1/4
SUSSEX         FOG       46  44  93 CALM      29.96S VSB 1/4
ANDOVER          N/A     42  41  96 CALM      29.96S
TRENTON        MOCLDY    50  47  89 W3        29.97R FOG
MILLVILLE      CLOUDY    52  48  86 W3        29.99R
ATLANTIC CITY  CLOUDY    53  47  79 W3        29.98R
WRIGHTSTOWN    CLOUDY    51  48  90 W5        29.95S
TOMS RIVER     CLOUDY    54  46  76 CALM      29.98R
BELMAR         CLOUDY    52  45  76 W7        29.96S
$$

PAZ047>061-062-071-300400-
EASTERN PENNSYLVANIA

CITY           SKY/WX    TMP DP  RH WIND       PRES   REMARKS
PHILADELPHIA   MOCLDY    53  49  86 W5        29.98S
ALLENTOWN      CLOUDY    48  46  93 W3        29.97S FOG
SCRANTON       CLOUDY    50  46  86 N3        29.95S
$$

CTZ002-004>006-009-010-012-RIZ004-006-007-MAZ004-011-015-300400-
SOUTHERN NEW ENGLAND
 IN CT

CITY           SKY/WX    TMP DP  RH WIND       PRES   REMARKS
BRADLEY INTL   MOCLDY    49  41  74 W6        29.91R
HARTFORD       CLOUDY    52  42  69 SW7       29.92R
DANBURY        MOCLDY    48  44  86 CALM      29.95R
WTRBRY/OXFORD  CLOUDY    48  43  81 NW5       29.93R
BRIDGEPORT     CLOUDY    52  48  86 NW6       29.93R
MERIDEN        CLOUDY    51  42  71 NW8       29.93R
NEW HAVEN      CLOUDY    54  48  80 NW6       29.93R
CHESTER        FAIR      52  46  82 NW3       29.92R
GROTON         CLOUDY    53  49  86 NW10      29.90R
WILLIMANTIC    CLOUDY    52  47  83 CALM      29.91R

 IN RI

CITY           SKY/WX    TMP DP  RH WIND       PRES   REMARKS
PROVIDENCE     CLOUDY    54  49  83 NW5       29.90S
BLOCK ISLAND   CLOUDY    54  46  76 NW8       29.90S
WESTERLY       LGT RAIN  53  50  89 VRB5      29.91R

 IN MA

CITY           SKY/WX    TMP DP  RH WIND       PRES   REMARKS
BOSTON         CLOUDY    54  49  83 W9        29.86F
WORCESTER      CLOUDY    48  44  86 W10       29.87F
WESTFIELD      MOCLDY    45  43  93 CALM      29.91R
PROVINCETOWN   CLOUDY    54   1  12 NW12      29.87R
NANTUCKET      CLOUDY    60  56  86 N9        29.84R
$$

ANZ330-335-338-340-345-350-353-355-300400-
COASTAL MARINE OBSERVATIONS


STATION/POSITION TIME  SKY/WX   TEMP    WIND        PRES    VSBY  WAVE
                                AIR SEA DIR/SP/G                  HT/PER
                 (UTC)          (F)     (DEG/KT/KT) (MB)    (MI)  (FT/S)
NY HARB ENTRANCE 0300            56 61  290/ 16/ 19 1014.2          3/ 6
4S FIRE IS       0300               62                N/A           3/ 6
20S FIRE ISLAND  0300            58 62  300/ 16/ 17 1013.4          4/ 6
23SW MTP         0300                                 N/A           4/ 6
HUDSON CANYON    0300            61 65  320/ 16/ 19 1012.9          4/ 5
EXECUTION ROCKS  0300            55 60  310/ 12/ 14   N/A
WESTERN LI SOUND 0300            55     290/ 10/ 12   N/A           1
CENTRAL LI SOUND 0200            56 61  310/ 14/ 17   N/A           2/ 4
EASTERN LI SOUND 0200            56 62  320/ 10/ 14   N/A
ROBBINS REEF     0300            53     290/ 11/ 13 1013.0
$$


>>>>>>>>>>>>>>>>>>>>>>>>>>>> KEY <<<<<<<<<<<<<<<<<<<<<<<<<<<
>                                                          <
>     SKY/WX - SKY CONDITION/PRESENT WEATHER               <
>     TMP    - TEMPERATURE IN FAHRENHEIT                   <
>     DP     - DEWPOINT IN FAHRENHEIT                      <
>     RH     - RELATIVE HUMIDITY IN PERCENT                <
>     WIND   - DIRECTION AND SPEED IN MPH                  <
>     PRES   - MEAN SEA LEVEL PRESSURE IN INCHES OF HG     <
>     WCI    - WIND CHILL INDEX                            <
>     VSB    - VISIBILITY IN MILES                         <
>     HX     - HEAT INDEX                                  <
>     TC     - TEMPERATURE IN CELSIUS                      <
>     VRB    - VARIABLE WIND DIRECTION                     <
>                                                          <
>>>>>>>>>>>>>>>>>>>>>>>>>>>> KEY <<<<<<<<<<<<<<<<<<<<<<<<<<<





USA.gov is the U.S. government's official web portal to all federal, state and local government web resources and services.